Location: Tehachapi Municipal Airport
(35.1300°N, 118.4400°W)
Time: 11:50:11
(UTC-07:00)

Daily predictions for brighter satellites

Satellite Brightness Start Highest point End
(mag) Time Altitude Azimuth Time Altitude Azimuth Time Altitude Azimuth
Cosmos 2084 3.7 20:26:11 10° SW 20:30:02 66° WNW 20:33:51 10° NNE
Cosmos 1606 3.8 20:27:14 10° NNE 20:30:38 27° ENE 20:34:00 10° SE
CZ-4 DEB 3.8 20:29:07 10° SE 20:31:54 29° ENE 20:34:43 10° NNE
Cosmos 1892 3.6 20:28:37 10° SSW 20:32:21 53° W 20:36:10 10° N
Cosmos 2074 Rocket 4.2 20:28:46 10° S 20:35:03 82° W 20:41:21 10° N
USA 186 1.7 20:32:11 10° SSE 20:35:19 72° ENE 20:38:37 10° N
TIMED 4.5 20:31:06 10° SSW 20:35:27 83° ESE 20:39:51 10° NNE
Meteor 1-10 Rocket 4.3 20:32:53 10° N 20:38:41 79° E 20:44:20 10° SSE
Coronas F rocket 3.8 20:36:52 10° SW 20:39:08 25° W 20:41:25 10° NNW
Resurs 01 Rocket 3.9 20:37:10 10° SSW 20:40:50 26° W 20:44:31 10° NW
Cosmos 1862 3.8 20:37:43 10° SSE 20:41:33 41° E 20:45:24 10° NNE
COS B Rocket 4.4 20:39:06 10° NNE 20:42:03 22° E 20:44:15 13° SE
GPS 2-05 Rocket1 3.0 20:39:22 10° W 20:43:08 81° N 20:46:50 10° E
ALOS 2.5 20:38:29 10° S 20:43:08 73° WSW 20:47:49 10° NNW
Sich 1 Rocket 3.6 20:39:06 10° S 20:43:39 74° E 20:48:14 10° N
Cosmos 1610 Rocket 4.5 20:39:31 10° S 20:45:40 82° E 20:51:56 10° N
Cosmos 1174 3.2 20:42:40 10° NNW 20:45:43 57° ENE 20:48:06 14° SE
Lacrosse 5 rocket 2.8 20:44:06 10° SSE 20:46:22 15° ESE 20:48:34 10° E
Cosmos 1408 3.0 20:44:32 10° SSE 20:47:57 39° E 20:51:22 10° NNE
OAO 3 Rocket 3.3 20:43:08 10° WSW 20:48:02 61° SSE 20:52:55 10° E
Cosmos 676 Rocket 4.1 20:42:52 10° N 20:48:02 62° ENE 20:53:13 10° SSE
Cosmos 1954 Rocket 4.3 20:45:22 10° N 20:50:26 49° ENE 20:54:57 13° SE
Cosmos 1975 Rocket 4.2 20:47:09 10° NNE 20:50:46 25° ENE 20:53:20 15° ESE
H-2A R/B 3.1 20:47:10 10° S 20:50:49 62° W 20:54:31 10° NNW
Nadezhda 3 Rocket 4.2 20:50:31 10° N 20:56:47 57° E 21:03:01 10° SSE
ATLAS 5 CENTAUR R/B 3.7 20:51:19 10° NW 20:56:57 38° WSW 21:02:51 10° S
Cosmos 1908 Rocket 3.5 20:53:06 10° S 20:57:30 82° E 21:01:57 10° N
SL-27 R/B 4.1 20:55:22 10° NW 20:58:40 34° WSW 21:01:53 10° SSW
Cosmos 1378 Rocket 3.8 20:54:31 10° N 20:58:44 50° E 21:02:17 14° SSE
Meteor 1-27 Rocket 3.6 20:57:58 10° N 21:03:32 75° E 21:09:01 10° SSE
Cosmos 1782 3.7 21:03:49 10° NNW 21:07:45 50° W 21:11:39 10° S
Cosmos 1825 2.1 21:08:09 10° S 21:11:58 87° W 21:15:48 10° N
OAO 1 Rocket 4.4 21:08:34 10° WSW 21:13:54 82° S 21:18:19 15° E
Nimbus 7 Rocket 4.4 21:09:33 10° NNE 21:15:27 61° ESE 21:21:23 10° S
Envisat 3.0 21:15:20 19° SSE 21:18:58 64° ENE 21:24:00 10° N
ISS -0.1 21:17:54 10° WNW 21:19:33 13° NNW 21:21:11 10° N
SEDSat Delta rocket 3.2 21:15:28 10° WSW 21:19:50 46° S 21:21:31 29° ESE
deb Chang Zheng 4 3.5 21:16:21 10° NNE 21:20:48 80° ESE 21:25:14 10° S
BREEZE-M DEB (TANK) 3.2 21:20:25 10° WNW 21:22:34 40° SW 21:24:13 25° SSE
Cosmos 1833 Rocket 3.8 21:19:49 10° N 21:24:35 28° ENE 21:26:48 21° E
Cosmos 2341 Rocket 4.0 21:18:53 10° S 21:25:12 87° W 21:31:29 10° N
H-2A R/B 2.0 21:23:58 26° SSE 21:26:18 70° ENE 21:30:30 10° N
Abrixas 3.3 21:23:41 10° WSW 21:26:39 53° NW 21:29:39 10° NE
ERS-1 Rocket 3.2 21:23:06 12° S 21:27:40 69° WSW 21:32:42 10° NNW
SL-8 Rocket 4.1 21:22:37 14° SSE 21:27:59 57° E 21:34:04 10° NNE
Cosmos 1939 Rocket 2.8 21:26:52 23° S 21:29:12 80° W 21:33:09 10° NNW
Cosmos 2278 Rocket 3.3 21:24:11 10° SW 21:29:36 46° WNW 21:35:03 10° N
Cosmos 1420 Rocket 4.4 21:26:59 10° SSW 21:32:11 66° WNW 21:37:23 10° NNE
COSMOS 2487 3.0 21:28:51 10° NNW 21:32:24 57° WSW 21:34:09 27° S
Okean 3 3.5 21:28:36 10° N 21:32:52 81° W 21:35:22 24° S
Atlas Centaur 2 2.9 21:32:29 10° WSW 21:34:53 17° SSW 21:34:58 17° SSW
Cosmos 2151 Rocket 4.1 21:34:16 36° SE 21:35:17 41° E 21:39:33 10° NNE
Cosmos 1140 Rocket 3.4 21:32:52 10° NNW 21:38:03 88° WSW 21:40:45 29° SSE
APEX 4.4 21:34:24 10° SW 21:38:07 51° WNW 21:42:59 10° NNE
Cosmos 1238 Rocket 3.5 21:39:07 10° NNW 21:42:38 51° W 21:45:24 19° SSW
Cosmos 1295 Rocket 4.5 21:37:09 10° S 21:43:28 87° W 21:49:45 10° N
SPOT 5 3.0 21:42:02 31° SSE 21:44:41 80° ENE 21:50:04 10° N
Timation 2 Rocket 3.8 21:40:11 10° NNW 21:46:11 89° ENE 21:49:05 33° SSE
CZ-4B R/B 3.5 21:42:43 10° NNE 21:47:25 48° E 21:48:15 43° SE
Elektron 3 4.3 21:45:04 10° NNW 21:48:08 70° NE 21:48:58 51° ESE
Cosmos 2082 Rocket 2.3 21:47:18 10° NNW 21:52:57 62° ENE 21:54:41 42° SE
Lacrosse 5 1.8 21:50:49 10° SSW 21:55:47 56° SE 22:00:46 10° NE
Cosmos 864 Rocket 4.4 21:54:12 33° SSE 21:56:59 65° E 22:03:05 10° NNE
H-2A R/B 3.2 22:01:28 28° ENE 22:01:53 28° ENE 22:06:21 10° NNE
CZ-3C R/B 3.5 21:43:08 10° WSW 22:04:04 31° SSW 22:06:05 28° S
MetOp-B 4.2 22:06:23 41° S 22:08:19 75° WSW 22:13:40 10° NNW
UNK 4.5 22:03:06 10° N 22:09:13 78° WNW 22:13:26 20° SSW
Meteor 1-18 Rocket 4.3 22:03:57 10° N 22:09:51 65° E 22:11:07 52° SE
Cosmos 2366 rocket 3.9 22:06:49 29° S 22:10:13 90° SSE 22:16:35 10° N
NOAA 11 4.2 22:10:16 54° SE 22:11:22 69° ENE 22:16:51 10° N
Cosmos 1242 Rocket 4.0 22:09:08 10° NNW 22:12:27 32° W 22:13:13 29° WSW
SPOT 1/Viking Rocket 3.4 22:16:35 61° SSE 22:17:31 89° WNW 22:22:45 10° NNW
BREEZE-M DEB (TANK) 2.6 22:09:08 10° NW 22:17:58 78° NE 22:18:15 73° E
YAOGAN 6 3.5 22:19:45 44° WNW 22:19:45 44° WNW 22:22:46 10° NNW
GPS 2-05 Rocket1 4.4 22:17:46 10° W 22:20:02 34° W 22:20:02 34° W
Lacrosse 5 rocket 2.1 22:21:27 10° WSW 22:25:17 46° NW 22:28:58 10° NNE
OAO 3 Rocket 3.3 22:26:35 10° W 22:31:09 75° W 22:31:09 75° W
SL-08 RB Rocket 3.7 22:31:55 79° NNW 22:31:55 79° NNW 22:36:20 10° NNW
ARGOS 3.1 22:32:08 65° SSW 22:32:48 74° WSW 22:38:10 10° NNW
Cosmos 2369 Rocket 3.6 22:37:37 26° ENE 22:37:37 26° ENE 22:40:21 10° NE
Meteor 2-19 Rocket 4.5 22:33:36 47° SSW 22:35:27 76° W 22:41:35 10° N
Meteor 1-11 Rocket 4.3 22:38:45 45° ENE 22:38:45 45° ENE 22:43:24 10° NNE
CZ-4 R/B 4.0 22:33:41 10° N 22:38:17 64° WNW 22:38:29 63° W
USA 229 DEB 3.8 22:33:18 10° NW 22:40:25 73° WSW 22:41:54 57° S
USA 229 3.8 22:33:24 10° NW 22:40:31 74° WSW 22:41:59 58° S
Cosmos 1536 Rocket 4.2 22:37:16 10° NNW 22:41:23 52° W 22:41:23 52° W
Landsat 7 4.1 22:46:06 65° NNW 22:46:06 65° NNW 22:50:11 10° NNW
Gbstr 26 Del rocket 4.2 22:48:50 10° NW 22:52:37 38° N 22:52:37 38° N
NOSS 3-1 (A) 4.5 22:51:21 10° NNW 22:58:47 50° NE 23:00:22 44° E
Cosmos 1943 Rocket 4.4 23:03:10 12° NE 23:03:10 12° NE 23:03:44 10° NE
Terra 2.5 23:02:19 51° NNW 23:02:19 51° NNW 23:05:52 10° NNW
Cosmos 1833 Rocket 3.7 23:03:26 10° NW 23:08:29 35° WSW 23:08:30 35° WSW
ATLAS 2AS CENTAUR R/B 4.3 23:12:36 10° NNW 23:19:24 29° NE 23:21:47 25° ENE
Cosmos 1821 Rocket 4.1 23:26:38 71° NW 23:26:38 71° NW 23:32:20 10° N
NOSS 3-1 (C) 3.9 23:19:32 10° NNW 23:27:20 88° ENE 23:27:47 82° SE
USA 234 3.2 23:26:09 10° NE 23:32:37 79° NW 23:32:37 79° NW
Cosmos 1934 Rocket 4.2 23:34:08 62° NNW 23:34:08 62° NNW 23:39:09 10° N
Cosmos 2082 Rocket 4.4 23:33:21 10° WNW 23:36:23 15° W 23:36:32 15° W
Lacrosse 5 4.0 23:34:55 10° W 23:39:01 24° NW 23:43:08 10° NNE
H-2A R/B 3.6 23:42:06 30° WNW 23:42:06 30° WNW 23:45:51 10° NW
Cosmos 2285 Rocket 4.4 23:42:12 60° NW 23:42:12 60° NW 23:48:08 10° N
Cosmos 2123 Rocket 4.4 23:42:22 10° N 23:47:20 59° N 23:47:20 59° N
